{"data":{"norad_id":65674,"epoch":"2026-09-20T14:08:21.493824Z","epoch_age_seconds":101073,"freshness":"FRESH","line1":"1 65674U 25211Y   26263.58913766  .00015937  00000+0  49470-3 0  9994","line2":"2 65674  97.2838 303.7747 0000823  98.0035 262.1301 15.33460025 56539","mean_motion":15.33460025,"eccentricity":8.23e-5,"inclination_deg":97.2838,"raan_deg":303.7747,"arg_perigee_deg":98.0035,"mean_anomaly_deg":262.1301,"bstar":0.0004947,"rev_number":5653,"period_min":93.905284554125,"perigee_km":464.93523981486,"apogee_km":466.06170221339,"semimajor_km":6843.6354710141,"source":"CELESTRAK","updated_at":"2026-09-21T09:00:35.683936Z"}}